Weather History for Marfa, TX

Change the Weather History Date:

Saturday, January 21, 2012

  Actual Average Record
Temperature  
Mean Temperature 50 °F -  
Max Temperature 69 °F 58 °F 71 °F (1999)
Min Temperature 30 °F 27 °F 14 °F (2008)
Degree Days  
Heating Degree Days 16    
Moisture  
Dew Point 6 °F    
Average Humidity 18    
Maximum Humidity 30    
Minimum Humidity 10    
Precipitation  
Precipitation 0.00 in - - ()
Sea Level Pressure  
Sea Level Pressure 30.06 in    
Wind  
Wind Speed 9 mph (WSW)    
Max Wind Speed 21 mph    
Max Gust Speed 25 mph    
Visibility 10 miles    
Events      
Averages and records for this station are not official NWS values.
T = Trace of Precipitation, MM = Missing Value Source: NWS Daily Summary

Daily Weather History Graph

Daily Weather History Graph

Search for Another Location

Airport:

Trip Planner

Search our weather history database for the weather conditions in past years. The results will help you decide how hot, cold, wet, or windy it might be!

Date:

Astronomy

Jan. 21, 2012 Rise Set
Actual Time 7:52 AM CST 6:22 PM CST
Civil Twilight 7:26 AM CST 6:48 PM CST
Nautical Twilight 6:57 AM CST 7:17 PM CST
Astronomical Twilight 6:28 AM CST 7:46 PM CST
Moon 6:21 AM CST (1/21) 5:03 PM CST (1/21)
Length of Visible Light 11h 21m
Length of Day
10h 30m
Waning Crescent, 3% of the Moon is Illuminated
Jan 21
Waning Crescent
Jan 23
New
Jan 30
First Quarter
Feb 7
Full
Feb 14
Last Quarter

Hourly Weather History & Observations

Time (CST) Temp. Windchill Dew Point Humidity Pressure Visibility Wind Dir Wind Speed Gust Speed Precip Events Conditions
12:15 AM 42.8 °F 37.5 °F 5.0 °F 21% 30.11 in 10.0 mi NNW 9.2 mph - N/A   Clear
12:35 AM 46.4 °F 40.4 °F 5.0 °F 18% 30.11 in 10.0 mi NNW 13.8 mph - N/A   Clear
12:55 AM 44.6 °F 38.1 °F 3.2 °F 18% 30.11 in 10.0 mi NW 13.8 mph - N/A   Clear
1:15 AM 44.6 °F 39.2 °F 1.4 °F 17% 30.11 in 10.0 mi NW 10.4 mph - N/A   Clear
1:35 AM 37.4 °F 30.8 °F -0.4 °F 20% 30.11 in 10.0 mi West 9.2 mph - N/A   Clear
1:55 AM 42.8 °F 37.0 °F 3.2 °F 19% 30.10 in 10.0 mi WNW 10.4 mph - N/A   Clear
2:15 AM 39.2 °F 31.6 °F 1.4 °F 21% 30.09 in 10.0 mi NW 12.7 mph - N/A   Clear
2:35 AM 37.4 °F 30.3 °F 1.4 °F 22% 30.09 in 10.0 mi NNW 10.4 mph - N/A   Clear
3:15 AM 39.2 °F 35.9 °F 3.2 °F 22% 30.08 in 10.0 mi West 4.6 mph - N/A   Clear
3:35 AM 35.6 °F 29.9 °F -0.4 °F 22% 30.08 in 10.0 mi SSE 6.9 mph - N/A   Clear
3:55 AM 37.4 °F - 1.4 °F 22% 30.09 in 10.0 mi Calm Calm - N/A   Clear
4:15 AM 35.6 °F 28.6 °F 1.4 °F 24% 30.08 in 10.0 mi ENE 9.2 mph - N/A   Clear
4:35 AM 42.8 °F 38.6 °F 6.8 °F 23% 30.07 in 10.0 mi NNW 6.9 mph - N/A   Clear
4:55 AM 35.6 °F 31.7 °F -0.4 °F 22% 30.07 in 10.0 mi North 4.6 mph - N/A   Clear
5:15 AM 37.4 °F 34.9 °F 3.2 °F 24% 30.07 in 10.0 mi NNE 3.5 mph - N/A   Clear
5:35 AM 33.8 °F - 1.4 °F 25% 30.07 in 10.0 mi Calm Calm - N/A   Clear
5:55 AM 30.2 °F 23.4 °F -0.4 °F 27% 30.07 in 10.0 mi SE 6.9 mph - N/A   Clear
6:15 AM 32.0 °F 26.4 °F 3.2 °F 30% 30.08 in 10.0 mi ESE 5.8 mph - N/A   Clear
6:35 AM 30.2 °F 26.7 °F 1.4 °F 29% 30.09 in 10.0 mi East 3.5 mph - N/A   Clear
6:55 AM 30.2 °F 26.7 °F 1.4 °F 29% 30.09 in 10.0 mi ESE 3.5 mph - N/A   Clear
7:15 AM 30.2 °F 23.4 °F 1.4 °F 29% 30.09 in 10.0 mi ENE 6.9 mph - N/A   Clear
7:35 AM 32.0 °F 26.4 °F 1.4 °F 27% 30.11 in 10.0 mi ENE 5.8 mph - N/A   Clear
7:55 AM 33.8 °F - 3.2 °F 28% 30.11 in 10.0 mi Calm Calm - N/A   Clear
8:15 AM 30.2 °F 21.9 °F -0.4 °F 27% 30.11 in 10.0 mi NNW 9.2 mph - N/A   Clear
8:35 AM 33.8 °F 27.7 °F 3.2 °F 28% 30.11 in 10.0 mi North 6.9 mph - N/A   Clear
8:55 AM 33.8 °F 27.7 °F 3.2 °F 28% 30.12 in 10.0 mi North 6.9 mph - N/A   Clear
9:15 AM 42.8 °F 40.1 °F 8.6 °F 25% 30.12 in 10.0 mi NNW 4.6 mph - N/A   Clear
9:35 AM 46.4 °F - 8.6 °F 22% 30.13 in 10.0 mi Calm Calm - N/A   Clear
9:55 AM 48.2 °F - 8.6 °F 20% 30.13 in 10.0 mi Calm Calm - N/A   Clear
10:15 AM 51.8 °F - 8.6 °F 18% 30.14 in 10.0 mi SSE 3.5 mph - N/A   Clear
10:35 AM 53.6 °F - 8.6 °F 16% 30.15 in 10.0 mi South 3.5 mph - N/A   Clear
10:55 AM 55.4 °F - 10.4 °F 17% 30.15 in 10.0 mi South 6.9 mph - N/A   Clear
11:15 AM 57.2 °F - 10.4 °F 16% 30.14 in 10.0 mi South 5.8 mph - N/A   Clear
11:35 AM 60.8 °F - 10.4 °F 14% 30.12 in 10.0 mi Calm Calm - N/A   Clear
11:55 AM 62.6 °F - 12.2 °F 14% 30.11 in 10.0 mi SSW 8.1 mph - N/A   Clear
12:15 PM 64.4 °F - 12.2 °F 13% 30.10 in 10.0 mi SW 11.5 mph 17.3 mph N/A   Clear
12:35 PM 64.4 °F - 12.2 °F 13% 30.09 in 10.0 mi SSW 8.1 mph - N/A   Clear
12:55 PM 64.4 °F - 12.2 °F 13% 30.08 in 10.0 mi SW 9.2 mph - N/A   Clear
1:15 PM 64.4 °F - 12.2 °F 13% 30.06 in 10.0 mi SW 12.7 mph - N/A   Clear
1:35 PM 66.2 °F - 14.0 °F 13% 30.05 in 10.0 mi SSW 15.0 mph - N/A   Clear
1:55 PM 68.0 °F - 14.0 °F 12% 30.04 in 10.0 mi SW 15.0 mph 20.7 mph N/A   Clear
2:35 PM 68.0 °F - 12.2 °F 12% 30.02 in 10.0 mi SW 18.4 mph 21.9 mph N/A   Clear
2:55 PM 69.8 °F - 12.2 °F 11% 30.01 in 10.0 mi SW 13.8 mph 25.3 mph N/A   Clear
3:15 PM 69.8 °F - 10.4 °F 10% 30.00 in 10.0 mi WSW 18.4 mph - N/A   Clear
3:35 PM 69.8 °F - 12.2 °F 11% 30.00 in 10.0 mi WSW 15.0 mph - N/A   Clear
3:55 PM 68.0 °F - 10.4 °F 11% 29.99 in 10.0 mi WSW 15.0 mph 21.9 mph N/A   Clear
4:15 PM 68.0 °F - 10.4 °F 11% 29.99 in 10.0 mi SW 17.3 mph - N/A   Clear
4:35 PM 66.2 °F - 10.4 °F 11% 29.99 in 10.0 mi WSW 17.3 mph 20.7 mph N/A   Clear
4:55 PM 66.2 °F - 10.4 °F 11% 29.99 in 10.0 mi WSW 19.6 mph - N/A   Clear
5:15 PM 66.2 °F - 10.4 °F 11% 29.98 in 10.0 mi WSW 20.7 mph 24.2 mph N/A   Clear
5:35 PM 64.4 °F - 8.6 °F 11% 29.98 in 10.0 mi WSW 15.0 mph - N/A   Clear
5:55 PM 64.4 °F - 8.6 °F 11% 29.97 in 10.0 mi WSW 11.5 mph - N/A   Clear
6:15 PM 60.8 °F - 6.8 °F 12% 29.97 in 10.0 mi SW 9.2 mph - N/A   Clear
6:35 PM 53.6 °F - 3.2 °F 13% 29.97 in 10.0 mi SSW 8.1 mph - N/A   Clear
6:55 PM 51.8 °F - 3.2 °F 14% 29.97 in 10.0 mi SW 10.4 mph - N/A   Clear
7:35 PM 51.8 °F - 6.8 °F 16% 29.96 in 10.0 mi South 6.9 mph - N/A   Clear
7:55 PM 48.2 °F - 5.0 °F 17% 29.95 in 10.0 mi South 9.2 mph - N/A   Clear
8:15 PM 46.4 °F 41.5 °F 3.2 °F 17% 29.94 in 10.0 mi South 10.4 mph - N/A   Clear
8:35 PM 42.8 °F 39.3 °F 3.2 °F 19% 29.95 in 10.0 mi East 5.8 mph - N/A   Clear
9:15 PM 41.0 °F 36.4 °F 3.2 °F 21% 29.94 in 10.0 mi SSW 6.9 mph - N/A   Clear
9:35 PM 46.4 °F 42.4 °F 6.8 °F 20% 29.93 in 10.0 mi SSW 8.1 mph - N/A   Clear
9:55 PM 46.4 °F 42.9 °F 5.0 °F 18% 29.93 in 10.0 mi SSW 6.9 mph - N/A   Clear
10:15 PM 42.8 °F 39.3 °F 3.2 °F 19% 29.93 in 10.0 mi SSW 5.8 mph - N/A   Clear
10:35 PM 42.8 °F 39.3 °F 3.2 °F 19% 29.93 in 10.0 mi SW 5.8 mph - N/A   Clear
10:55 PM 42.8 °F 38.6 °F 3.2 °F 19% 29.92 in 10.0 mi SW 6.9 mph - N/A   Clear
11:15 PM 44.6 °F 41.4 °F 5.0 °F 20% 29.92 in 10.0 mi SSW 5.8 mph - N/A   Clear
11:35 PM 42.8 °F 38.6 °F 3.2 °F 19% 29.92 in 10.0 mi SSW 6.9 mph - N/A   Clear
11:55 PM 42.8 °F 38.6 °F 3.2 °F 19% 29.92 in 10.0 mi SW 6.9 mph - N/A   Clear